Location: Anmer
(52.8333°N, 0.5833°E)
Time: 20:15:07
(UTC+00:00)

NOSS 3-3 (C) - Pass Details

Date: 15 May 2026
Orbit: 697 x 1516 km, 63.4° (Epoch: 11 January)

Event Time Altitude Azimuth Distance (km) Brightness Sun altitude
Rises 20:29:14 0° 209° (SSW) 3,173 6.6 -5.6°
Reaches altitude 10° 20:31:28 10° 205° (SSW) 2,314 5.8 -5.9°
Maximum altitude 20:36:38 58° 127° (SE) 1,001 3.8 -6.4°
Drops below altitude 10° 20:42:52 10° 50° (NE) 2,778 6.3 -7.1°
Sets 20:45:46 0° 47° (NE) 3,866 7.1 -7.4°
